Flag for Lebanon Weather past 2 weeks in Sidon, Lebanon

81 °F

Passing clouds.

Feels Like: 80 °F
Forecast: 74 / 83 °F
Wind: 18 mph from Southwest

Location: Beirut Airport

Current Time: Nov 26, 2015 at 1:22:40 PM

Latest Report: Nov 26, 2015 at 1:00 PM

Visibility: N/A

Pressure: 29.92 "Hg

Humidity: 32%

Dew point: 48 °F

Location of SidonLocation

Historic Weather in Sidon — Graph


Sidon temperature yesterday

Maximum temperature yesterday: 73 °F (at 12:00 PM)
Minimum temperature yesterday: 61 °F (at 5:00 AM)
Average temperature yesterday: 68 °F

Past Weeks' High & Low Weather Summary

High81 °F (Nov 22, 5:00 PM)83% (Nov 18, 3:00 AM)30.24 "Hg (Nov 18, 3:00 AM)
Low61 °F (Nov 20, 7:00 AM)25% (Nov 22, 12:00 AM)29.77 "Hg (Nov 16, 5:00 AM)
Average69 °F53%30.07 "Hg
* Reported Nov 11 12:00 Noon — Nov 26 12:00 Noon, Sidon, Weather by CustomWeather, © 2015

Note: Actual official high and low records may vary slightly from our data, if they occured in-between our weather recording intervals... More about our weather records


Sidon weather history for previous 24 hours

Time TempWeatherWind HumidityBarometerVisibility
12:00 PM
Thu, Nov 26
77 °FSunny.17 mph51%29.95 "Hg10 mi
11:00 AM81 °FSunny.2 mph37%29.98 "Hg10 mi
10:00 AM77 °FPassing clouds.5 mph39%29.98 "HgN/A
9:00 AM77 °FScattered clouds.2 mph42%29.98 "Hg5 mi
8:00 AM72 °FScattered clouds.5 mph44%29.98 "HgN/A
7:00 AM70 °FScattered clouds.2 mph43%29.95 "Hg5 mi
6:00 AM68 °FPassing clouds.3 mph46%29.95 "Hg5 mi
5:00 AM66 °FPassing clouds.7 mph49%29.95 "Hg5 mi
4:00 AM66 °FPassing clouds.3 mph46%29.98 "Hg5 mi
3:00 AM64 °FPassing clouds.6 mph49%29.98 "Hg5 mi
2:00 AM64 °FPassing clouds.5 mph46%29.98 "Hg5 mi
1:00 AM66 °FPassing clouds.3 mph40%30.01 "Hg5 mi
12:00 AM66 °FPassing clouds.5 mph46%30.04 "Hg5 mi
11:00 PM
Wed, Nov 25
66 °FPassing clouds.5 mph49%30.04 "Hg5 mi
10:00 PM66 °FPassing clouds.3 mph49%30.01 "Hg5 mi
9:00 PM66 °FPassing clouds.2 mph52%29.98 "Hg5 mi
8:00 PM70 °FPassing clouds.3 mph53%30.01 "Hg5 mi
7:00 PM70 °FPassing clouds.5 mph57%30.04 "Hg5 mi
6:00 PM70 °FPassing clouds.6 mph60%30.04 "Hg5 mi
5:00 PM73 °FPassing clouds.7 mph53%30.07 "Hg5 mi
4:00 PM73 °FPartly sunny.6 mph50%30.07 "Hg5 mi
3:00 PM73 °FPartly sunny.7 mph53%30.09 "Hg5 mi
2:00 PM72 °FPartly sunny.10 mph57%30.09 "Hg5 mi
1:00 PM73 °FPartly sunny.7 mph38%30.09 "HgN/A
Weather by CustomWeather, © 2015

See weather overviewHow to use our weather pages